TimeEDT,TemperatureF,Dew PointF,Humidity,Sea Level PressureIn,VisibilityMPH,Wind Direction,Wind SpeedMPH,Gust SpeedMPH,PrecipitationIn,Events,Conditions,WindDirDegrees,DateUTC
12:15 AM,37.4,37.4,100,30.16,10.0,Calm,Calm,-,N/A,,Unknown,0,2012-10-22 04:15:00
12:35 AM,37.4,37.4,100,30.16,10.0,Calm,Calm,-,N/A,,Unknown,0,2012-10-22 04:35:00
12:55 AM,37.4,37.4,100,30.16,10.0,Calm,Calm,-,N/A,,Unknown,0,2012-10-22 04:55:00
1:15 AM,37.4,37.4,100,30.16,10.0,Calm,Calm,-,N/A,,Unknown,0,2012-10-22 05:15:00
1:55 AM,35.6,35.6,100,30.15,10.0,Calm,Calm,-,N/A,,Unknown,0,2012-10-22 05:55:00
2:35 AM,37.4,37.4,100,30.16,10.0,Calm,Calm,-,N/A,,Unknown,0,2012-10-22 06:35:00
2:55 AM,35.6,35.6,100,30.16,10.0,Calm,Calm,-,N/A,,Unknown,0,2012-10-22 06:55:00
3:15 AM,35.6,35.6,100,30.16,10.0,Calm,Calm,-,N/A,,Unknown,0,2012-10-22 07:15:00
3:35 AM,35.6,35.6,100,30.16,10.0,Calm,Calm,-,N/A,,Unknown,0,2012-10-22 07:35:00
3:55 AM,35.6,35.6,100,30.16,10.0,Calm,Calm,-,N/A,,Unknown,0,2012-10-22 07:55:00
4:15 AM,35.6,35.6,100,30.16,10.0,Calm,Calm,-,N/A,,Unknown,0,2012-10-22 08:15:00
4:55 AM,35.6,35.6,100,30.17,10.0,Calm,Calm,-,N/A,,Unknown,0,2012-10-22 08:55:00
5:15 AM,35.6,35.6,100,30.17,10.0,Calm,Calm,-,N/A,,Unknown,0,2012-10-22 09:15:00
5:35 AM,33.8,33.8,100,30.17,10.0,Calm,Calm,-,N/A,,Unknown,0,2012-10-22 09:35:00
5:55 AM,35.6,35.6,100,30.18,10.0,Calm,Calm,-,N/A,,Unknown,0,2012-10-22 09:55:00
6:15 AM,33.8,33.8,100,30.18,10.0,Calm,Calm,-,N/A,,Unknown,0,2012-10-22 10:15:00
6:35 AM,33.8,33.8,100,30.18,10.0,Calm,Calm,-,N/A,,Unknown,0,2012-10-22 10:35:00
6:55 AM,35.6,35.6,100,30.18,10.0,Calm,Calm,-,N/A,,Unknown,0,2012-10-22 10:55:00
7:15 AM,35.6,35.6,100,30.19,10.0,Calm,Calm,-,N/A,,Unknown,0,2012-10-22 11:15:00
7:35 AM,33.8,33.8,100,30.20,7.0,Calm,Calm,-,N/A,,Unknown,0,2012-10-22 11:35:00
7:55 AM,35.6,35.6,100,30.20,10.0,Calm,Calm,-,N/A,,Unknown,0,2012-10-22 11:55:00
8:15 AM,35.6,35.6,100,30.20,10.0,Calm,Calm,-,N/A,,Unknown,0,2012-10-22 12:15:00
8:35 AM,37.4,37.4,100,30.21,10.0,Calm,Calm,-,N/A,,Unknown,0,2012-10-22 12:35:00
8:55 AM,42.8,42.8,100,30.21,10.0,Calm,Calm,-,N/A,,Unknown,0,2012-10-22 12:55:00
9:15 AM,44.6,42.8,93,30.21,10.0,Calm,Calm,-,N/A,,Unknown,0,2012-10-22 13:15:00
9:35 AM,46.4,44.6,93,30.20,10.0,Calm,Calm,-,N/A,,Unknown,0,2012-10-22 13:35:00
9:55 AM,48.2,44.6,87,30.20,10.0,WSW,4.6,-,N/A,,Unknown,240,2012-10-22 13:55:00
10:15 AM,50.0,44.6,82,30.21,10.0,SW,5.8,-,N/A,,Unknown,230,2012-10-22 14:15:00
10:35 AM,51.8,44.6,76,30.21,10.0,WSW,4.6,-,N/A,,Unknown,250,2012-10-22 14:35:00
10:55 AM,53.6,44.6,72,30.20,10.0,WSW,4.6,-,N/A,,Unknown,250,2012-10-22 14:55:00
11:15 AM,55.4,46.4,72,30.20,10.0,West,3.5,-,N/A,,Unknown,260,2012-10-22 15:15:00
11:35 AM,57.2,46.4,67,30.20,10.0,West,4.6,-,N/A,,Unknown,270,2012-10-22 15:35:00
11:55 AM,57.2,46.4,67,30.20,10.0,West,3.5,-,N/A,,Unknown,260,2012-10-22 15:55:00
12:15 PM,59.0,46.4,63,30.19,10.0,Calm,Calm,-,N/A,,Unknown,0,2012-10-22 16:15:00
12:35 PM,60.8,46.4,59,30.19,10.0,WSW,4.6,-,N/A,,Unknown,250,2012-10-22 16:35:00
12:55 PM,62.6,46.4,55,30.18,10.0,Calm,Calm,-,N/A,,Unknown,0,2012-10-22 16:55:00
1:15 PM,62.6,48.2,59,30.17,10.0,WSW,5.8,-,N/A,,Unknown,250,2012-10-22 17:15:00
1:35 PM,62.6,48.2,59,30.17,10.0,SW,3.5,-,N/A,,Unknown,230,2012-10-22 17:35:00
1:55 PM,64.4,48.2,56,30.15,10.0,Calm,Calm,-,N/A,,Unknown,0,2012-10-22 17:55:00
2:15 PM,64.4,48.2,56,30.15,10.0,Calm,Calm,-,N/A,,Unknown,0,2012-10-22 18:15:00
2:35 PM,66.2,48.2,52,30.14,10.0,WSW,6.9,-,N/A,,Unknown,250,2012-10-22 18:35:00
2:55 PM,66.2,48.2,52,30.14,10.0,WNW,3.5,-,N/A,,Unknown,290,2012-10-22 18:55:00
3:15 PM,66.2,48.2,52,30.12,10.0,WSW,3.5,-,N/A,,Unknown,240,2012-10-22 19:15:00
3:35 PM,66.2,48.2,52,30.12,10.0,West,9.2,-,N/A,,Unknown,280,2012-10-22 19:35:00
3:55 PM,68.0,50.0,52,30.13,10.0,WSW,5.8,-,N/A,,Unknown,240,2012-10-22 19:55:00
4:15 PM,68.0,50.0,52,30.12,10.0,WSW,8.1,-,N/A,,Unknown,250,2012-10-22 20:15:00
4:35 PM,68.0,50.0,52,30.12,10.0,Calm,Calm,-,N/A,,Unknown,0,2012-10-22 20:35:00
4:55 PM,68.0,50.0,52,30.12,10.0,SW,8.1,-,N/A,,Unknown,230,2012-10-22 20:55:00
5:15 PM,66.2,51.8,60,30.13,10.0,WSW,6.9,-,N/A,,Unknown,250,2012-10-22 21:15:00
5:35 PM,66.2,51.8,60,30.13,10.0,WSW,6.9,-,N/A,,Unknown,250,2012-10-22 21:35:00
5:55 PM,64.4,51.8,64,30.13,10.0,WSW,3.5,-,N/A,,Unknown,250,2012-10-22 21:55:00
6:15 PM,64.4,51.8,64,30.13,10.0,Calm,Calm,-,N/A,,Unknown,0,2012-10-22 22:15:00
6:35 PM,62.6,50.0,63,30.14,10.0,Calm,Calm,-,N/A,,Unknown,0,2012-10-22 22:35:00
6:55 PM,60.8,50.0,68,30.14,10.0,Calm,Calm,-,N/A,,Unknown,0,2012-10-22 22:55:00
7:15 PM,59.0,51.8,77,30.14,10.0,Calm,Calm,-,N/A,,Unknown,0,2012-10-22 23:15:00
7:35 PM,55.4,50.0,82,30.14,10.0,Calm,Calm,-,N/A,,Unknown,0,2012-10-22 23:35:00
7:55 PM,53.6,50.0,88,30.14,10.0,Calm,Calm,-,N/A,,Unknown,0,2012-10-22 23:55:00
8:15 PM,53.6,50.0,88,30.14,7.0,Calm,Calm,-,N/A,,Unknown,0,2012-10-23 00:15:00
8:35 PM,55.4,50.0,82,30.14,10.0,Calm,Calm,-,N/A,,Unknown,0,2012-10-23 00:35:00
8:55 PM,53.6,51.8,94,30.13,10.0,Calm,Calm,-,N/A,,Unknown,0,2012-10-23 00:55:00
9:15 PM,51.8,50.0,94,30.13,10.0,Calm,Calm,-,N/A,,Unknown,0,2012-10-23 01:15:00
9:55 PM,51.8,50.0,94,30.13,10.0,Calm,Calm,-,N/A,,Unknown,0,2012-10-23 01:55:00
10:15 PM,53.6,51.8,94,30.12,10.0,Calm,Calm,-,N/A,,Unknown,0,2012-10-23 02:15:00
10:35 PM,51.8,50.0,94,30.12,10.0,Calm,Calm,-,N/A,,Unknown,0,2012-10-23 02:35:00
10:55 PM,51.8,50.0,94,30.12,10.0,Calm,Calm,-,N/A,,Unknown,0,2012-10-23 02:55:00
11:15 PM,51.8,50.0,94,30.12,10.0,Calm,Calm,-,N/A,,Unknown,0,2012-10-23 03:15:00
11:35 PM,51.8,51.8,100,30.12,10.0,Calm,Calm,-,N/A,,Unknown,0,2012-10-23 03:35:00
11:55 PM,51.8,50.0,94,30.10,10.0,Calm,Calm,-,N/A,,Unknown,0,2012-10-23 03:55:00